Location: Newark
(14.1000°N, 87.2167°W)
Time: 08:44:26
(UTC+00:00)

Hubble Space Telescope - Pass Details

Date: 22 July 2019
Orbit: 536 x 540 km, 28.5° (Epoch: 23 August)

Event Time Altitude Azimuth Distance (km) Brightness Sun altitude
Exits shadow 11:06:28 - 250° (WSW) 1,979 3.0 -6.2°
Reaches altitude 10° 11:07:00 10° 251° (WSW) 1,777 2.7 -6.1°
Maximum altitude 11:11:05 68° 334° (NNW) 574 0.9 -5.2°
Drops below altitude 10° 11:15:10 10° 58° (ENE) 1,775 5.2 -4.3°
Sets 11:17:26 0° 61° (ENE) 2,665 6.9 -3.8°
